Temp_Advection
nan nan nan nan nan nan nan nan nan nan nan nan nan nan nan nan nan nan nan nan nan nan nan nan nan nan nan nan nan nan nan nan nan nan nan nan nan nan nan nan nan nan nan nan
nan -0 -0 -0 -0 -0 -0 -0 -0 -0 -0 0 0 -0 0 0 0 -0 -0 -0 -0 -0 -0 -0 -0 -0 -0 -0 -0 -0 -1 -1 -0 -0 0 -0 -0 -0 -0 0 0 0 -0 nan
nan -0 -0 -0 -0 -0 0 -0 0 0 0 0 0 0 0 0 0 -0 -0 -0 -0 -0 -0 -0 -0 -0 -0 -0 -0 -0 -0 -0 -0 -0 -0 -0 -0 -0 -0 0 0 0 -0 nan
nan -0 0 -1 -0 0 0 -0 -0 -0 0 0 0 0 0 0 0 -0 -0 -0 -0 -0 -0 -0 -0 -0 -0 -0 -0 -0 -0 -0 -0 -0 -0 -0 -0 -0 0 0 -0 -0 0 nan
nan -0 -1 -0 0 -0 -0 0 -0 -0 0 -0 -0 1 0 0 -0 0 -0 -0 -0 -0 -0 -0 0 -0 -0 -0 -0 -0 0 -0 -0 -1 -1 -1 -0 -0 -0 0 0 0 -0 nan
nan 0 -0 -0 -0 -0 -1 0 -0 -0 -0 0 -0 -0 -0 0 0 0 -0 0 -0 -0 -0 -0 -0 0 0 -0 -0 -0 -0 -0 -0 -0 -0 -0 -0 -0 -0 -0 0 0 0 nan
nan -0 -1 -1 -0 -0 -0 -0 -0 0 -0 -0 0 -0 -0 0 0 -0 -0 -0 -0 -0 -0 -0 -0 -0 -0 -0 -0 -0 -0 -0 -0 -0 -0 0 0 -0 -0 -0 0 0 -0 nan
nan 0 -1 -1 -0 -0 -1 -1 0 0 0 0 -0 0 0 0 0 0 -0 -0 -0 -0 -0 -0 -0 -0 -0 -0 -0 -0 0 -0 0 -0 -0 -0 -0 -0 -0 -0 -0 -0 -0 nan
nan -1 -1 -1 -0 -1 0 0 1 0 0 0 0 0 0 0 0 0 0 0 -0 -0 -0 -0 -0 -0 -0 -0 -0 -0 0 -0 0 0 0 -0 -0 -0 -0 -0 -0 -0 -0 nan
nan -0 -1 -1 1 1 1 1 1 1 0 0 0 0 0 0 0 0 0 -0 0 0 -0 -0 -0 -0 -0 -0 -0 -0 -0 0 -0 0 0 0 -0 -0 -0 -0 -0 -0 -0 nan
nan -0 0 0 0 1 1 1 0 0 0 0 0 0 0 0 0 0 0 0 -0 -0 0 0 0 0 0 -0 -0 0 -0 -0 -0 -0 0 0 -0 -0 -0 -0 -0 -0 -0 nan
nan -1 0 0 1 1 1 1 0 0 0 0 0 0 0 0 0 0 -0 -0 0 0 -0 -0 0 0 1 0 -0 -0 -0 0 0 -0 -0 -0 0 -0 -0 -0 -0 -0 -0 nan
nan -0 0 1 1 1 0 0 0 0 0 0 0 0 0 0 0 0 0 0 -0 -0 0 -0 -0 0 0 0 -0 -0 0 0 0 0 0 0 0 0 -0 -0 -0 -0 0 nan
nan 1 0 1 0 0 0 0 0 0 0 0 0 0 -0 0 0 0 0 -0 -0 -0 0 0 0 0 0 0 -0 0 0 0 0 0 0 0 0 0 -0 -0 -0 -0 -0 nan
nan 1 0 1 0 1 1 0 0 0 0 0 -0 0 0 0 0 -0 0 -0 -0 0 0 0 1 0 0 -0 0 0 0 0 -0 0 0 0 0 0 0 0 0 0 0 nan
nan 1 1 1 0 1 1 0 0 0 0 0 0 0 0 0 0 0 0 -0 -0 -0 -0 0 0 -0 0 -0 -0 0 0 0 0 0 0 0 0 0 0 -0 -0 0 0 nan
nan 0 1 1 1 0 0 0 0 -0 0 0 0 0 0 0 0 0 0 0 0 -0 -1 -0 -0 -0 -0 0 -0 0 0 0 0 0 -0 -0 0 0 0 0 -0 -0 0 nan
nan 1 0 -0 1 0 0 0 -0 0 0 0 0 0 0 0 0 0 -0 -0 0 1 0 -1 -0 -0 -0 -0 0 0 0 0 0 1 1 0 -0 0 0 0 0 -0 -0 nan
nan -0 1 0 0 0 -0 -0 -0 0 0 0 0 0 0 0 0 -0 0 0 -0 -0 0 0 -0 -0 -0 -0 -0 -0 0 0 0 1 1 0 -0 -0 0 0 0 0 0 nan
nan -0 0 0 0 -0 -0 0 -0 -0 0 0 0 0 0 0 0 0 0 0 1 0 -0 0 -0 -0 -0 -0 -0 0 0 0 0 0 0 0 0 0 0 0 0 0 0 nan
nan 0 -0 -0 -0 -0 -0 -0 -0 -0 0 0 0 -0 -0 0 0 0 -0 0 1 1 0 0 -0 -1 -0 -0 -0 -0 0 0 0 0 0 1 0 0 0 0 0 0 0 nan
nan -0 -0 -0 -0 -0 -0 -0 -0 -0 -0 -0 0 0 0 0 0 0 0 0 0 1 0 0 0 -0 -0 -0 -0 -0 0 0 0 0 0 1 1 1 0 -0 0 0 0 nan
nan -0 -0 -0 -0 -0 -0 0 0 0 0 0 -0 -0 0 0 1 0 -0 0 1 0 0 0 0 -0 -0 -0 -0 -0 0 0 0 0 0 0 1 1 1 0 0 0 0 nan
nan -0 -0 -0 -0 -0 -0 -0 0 0 0 0 0 0 0 0 1 1 -0 -0 0 0 -0 -0 0 -0 -0 -0 -0 -0 -0 0 0 -0 0 1 1 1 1 0 0 0 0 nan
nan -0 -0 -0 -0 -0 -0 -0 -0 -0 -0 -0 -0 0 0 0 0 0 0 -0 0 -0 -0 -0 -0 -0 -0 -0 -0 -0 -0 -0 -0 -0 0 0 1 1 1 1 1 0 0 nan
nan -0 -0 -0 -0 -0 -0 -0 -0 -0 -0 -0 -0 -0 -0 0 1 1 0 -0 -0 -0 -0 -0 -0 -0 -0 -0 -1 -0 -0 -0 -0 -0 -0 -0 0 1 1 1 1 1 0 nan
nan nan nan nan nan nan nan nan nan nan nan nan nan nan nan nan nan nan nan nan nan nan nan nan nan nan nan nan nan nan nan nan nan nan nan nan nan nan nan nan nan nan nan nan
Wind_Speed
3 4 2 0 2 2 5 4 5 6 7 3 7 9 15 19 13 7 5 8 11 8 6 9 13 12 13 16 17 18 23 28 32 32 27 30 29 29 31 23 16 12 11 16
1 4 6 3 4 4 4 3 3 4 4 4 10 14 16 13 8 5 6 7 6 5 8 10 8 13 11 15 21 25 28 29 29 31 31 33 35 26 17 17 6 13 14 17
3 4 5 5 5 3 1 3 3 5 6 9 6 13 12 9 5 2 4 4 5 8 8 9 11 12 17 20 24 24 23 24 31 30 33 38 27 24 19 17 6 11 15 17
2 3 1 4 3 4 7 3 8 9 6 9 14 12 11 6 1 1 2 5 7 6 10 9 13 16 19 23 20 20 23 29 29 32 36 32 21 23 16 5 13 12 11 17
3 3 5 2 5 5 5 5 6 9 10 9 17 13 7 2 2 1 4 7 5 10 11 13 14 19 23 19 21 25 26 28 30 32 33 26 18 10 7 9 11 7 18 20
2 4 6 5 3 9 8 4 15 14 14 10 15 3 4 3 2 2 4 4 7 10 14 17 22 25 25 22 21 25 27 27 30 31 24 17 14 9 7 11 9 15 14 18
2 2 8 7 6 7 5 7 19 18 16 14 5 5 3 2 3 2 4 7 10 15 19 20 23 24 24 22 25 25 24 30 29 22 17 10 11 10 9 9 8 11 16 20
3 2 8 14 6 7 6 14 18 15 14 10 7 6 7 4 1 2 5 8 13 16 18 20 19 21 24 26 25 27 30 28 21 20 13 12 10 9 8 10 11 15 18 20
10 7 6 23 12 18 12 14 19 19 13 9 7 7 6 3 2 4 8 11 13 18 20 18 19 24 25 25 29 33 29 26 24 17 10 9 10 12 13 13 14 17 19 19
3 6 16 14 19 13 17 14 17 14 11 11 7 7 6 3 3 8 12 17 21 22 24 23 23 24 27 29 33 26 25 23 21 13 13 12 13 12 11 13 17 18 17 17
4 5 2 6 13 15 14 13 14 8 4 9 12 9 5 3 8 12 17 19 21 23 23 24 25 26 28 31 30 20 22 21 17 14 13 12 9 10 13 16 18 15 15 17
6 8 9 10 15 17 17 15 10 11 13 11 7 5 3 8 13 17 18 22 22 22 23 23 23 27 30 28 21 18 21 17 16 13 12 11 12 13 15 17 12 12 15 16
10 17 16 13 18 17 14 12 13 16 13 9 5 3 7 15 16 20 21 20 21 23 22 24 26 27 26 24 23 22 22 16 16 13 13 15 15 17 16 7 9 11 13 15
17 13 10 21 14 15 13 14 17 13 10 5 2 8 16 18 19 19 19 20 22 23 24 26 27 27 22 22 23 20 15 15 13 14 15 17 16 12 9 12 14 12 13 15
17 17 11 16 13 17 15 18 16 11 5 2 8 15 19 17 18 19 19 21 24 25 27 28 27 24 20 19 20 15 14 14 14 15 13 15 16 14 12 12 10 13 13 14
20 13 15 19 19 15 18 15 11 5 3 9 15 17 16 17 19 20 20 23 26 29 29 27 24 17 18 18 19 17 15 15 15 14 15 16 17 16 12 12 12 13 11 13
21 19 17 16 18 18 13 7 2 3 10 14 16 15 16 19 21 20 23 26 29 28 27 23 18 17 18 19 20 20 16 16 15 15 18 20 18 15 13 13 14 10 11 12
15 19 21 21 17 13 4 0 6 10 14 15 15 15 18 19 20 23 26 29 29 26 22 18 20 20 19 19 21 19 19 16 17 19 19 14 13 14 14 14 13 11 13 12
20 22 21 13 7 3 3 8 12 13 12 12 14 16 17 17 19 22 25 27 28 26 23 22 21 21 23 23 28 18 19 16 14 14 14 14 14 13 14 14 13 13 13 12
17 8 8 7 2 7 10 10 10 11 11 12 16 17 17 15 18 21 24 26 24 24 24 25 22 28 25 23 28 17 18 16 14 13 12 13 14 13 14 14 14 15 14 15
8 5 0 5 10 9 10 11 12 13 13 15 18 18 15 16 18 20 26 31 28 20 24 25 26 27 24 26 20 15 17 18 17 17 17 17 18 17 15 16 16 16 17 18
3 3 8 12 12 13 12 14 14 14 15 16 15 14 17 20 21 24 26 29 29 24 26 28 28 27 23 22 19 16 18 21 21 21 20 20 22 20 19 18 18 18 18 16
6 10 11 13 14 14 13 12 13 14 16 17 19 20 22 24 24 26 33 32 30 25 26 28 27 26 23 21 19 19 21 23 24 25 23 22 23 23 20 18 19 19 19 18
9 11 12 11 12 12 13 14 16 17 19 20 21 22 24 27 26 26 27 32 27 23 24 24 24 23 22 22 21 20 23 27 28 30 31 28 27 24 22 22 22 22 21 19
10 10 10 10 11 14 19 22 25 25 25 24 25 25 24 23 26 27 29 24 23 21 23 23 22 22 21 20 22 24 24 25 27 28 29 30 32 29 24 19 22 24 25 24
11 11 13 15 17 20 25 25 25 25 26 28 30 26 22 25 26 24 24 21 22 22 24 23 22 21 20 22 23 23 24 26 27 27 28 28 28 29 26 22 20 21 22 22
13 17 20 22 25 25 27 26 25 28 30 34 31 27 25 25 20 21 23 21 23 21 21 21 20 20 20 21 23 24 25 25 26 27 27 27 26 25 23 20 18 17 17 19
Wind_Direction
70 47 51 201 206 234 190 195 165 240 221 181 147 140 130 134 130 116 58 13 9 16 4 348 338 329 315 315 312 316 324 327 332 336 335 330 333 320 320 299 292 289 291 315
36 22 14 301 288 231 227 227 204 156 77 98 112 127 127 139 137 95 35 17 32 14 351 340 328 318 320 319 324 330 329 332 332 331 327 333 334 320 302 288 273 290 303 314
254 8 356 351 221 222 197 66 224 219 175 148 130 142 156 150 131 72 23 36 4 355 349 334 328 323 325 331 334 330 328 332 331 326 331 335 331 322 302 301 305 286 322 307
200 28 35 247 305 203 144 67 113 109 143 159 165 162 155 145 117 92 52 357 352 353 337 330 323 324 329 334 332 325 328 327 323 327 331 336 330 320 295 246 284 311 299 316
135 193 301 306 187 164 167 232 175 152 160 142 158 150 164 108 62 139 357 344 341 329 327 326 325 330 333 334 325 324 320 324 326 330 331 335 330 328 337 320 310 299 314 312
138 138 216 237 214 135 91 276 181 169 171 168 159 178 242 185 246 264 332 314 318 320 323 322 327 326 328 325 321 319 325 326 327 328 328 328 323 304 321 316 299 302 311 320
141 213 286 239 192 139 104 239 175 184 183 175 188 217 188 230 159 328 312 316 319 323 324 325 326 324 317 318 321 323 323 327 329 327 326 317 317 318 316 302 307 315 323 331
107 98 280 193 164 174 201 162 184 190 189 190 203 205 179 165 280 310 325 320 319 318 322 327 322 313 318 321 324 324 327 331 328 327 315 320 316 315 323 319 316 322 330 332
184 212 243 182 204 212 229 206 194 189 187 195 185 170 168 185 212 299 307 317 319 320 322 322 318 321 320 322 325 325 329 329 327 319 311 316 314 315 316 315 323 330 332 336
111 239 233 238 226 240 205 213 186 186 171 164 194 183 177 199 285 301 311 317 319 320 321 322 322 322 320 320 322 317 321 325 326 311 304 305 307 310 311 317 323 330 332 339
253 284 141 206 221 211 197 179 165 177 183 179 178 178 208 273 297 309 314 318 319 318 317 318 320 319 317 317 319 310 314 320 322 316 309 313 306 302 309 317 325 330 336 341
234 218 244 242 219 197 184 179 186 173 158 159 192 198 258 301 311 314 317 317 315 315 316 319 317 317 316 316 319 300 305 307 316 316 330 335 309 300 302 310 319 327 331 336
255 279 257 260 185 187 189 179 176 169 185 188 172 277 311 319 317 313 311 312 315 316 317 317 318 319 323 315 309 299 296 294 306 305 311 315 317 304 306 317 318 316 323 337
259 223 163 174 189 188 178 168 171 166 165 180 267 317 319 313 308 309 312 316 316 315 316 317 314 315 320 310 306 306 290 290 287 296 302 301 314 304 311 317 323 331 325 332
228 214 242 199 167 163 165 170 161 160 167 281 315 315 310 308 310 313 315 313 311 313 316 317 316 321 323 310 305 307 288 285 283 285 295 298 315 311 295 304 308 315 318 322
197 200 164 158 155 160 170 170 170 152 302 311 307 307 306 309 312 310 310 310 313 316 318 319 321 330 325 319 310 306 283 286 284 293 291 300 304 305 288 300 304 305 312 324
168 154 152 142 150 155 164 143 130 322 306 302 303 303 308 310 306 305 310 315 315 315 318 324 325 321 315 317 309 304 282 282 290 287 290 295 292 286 288 292 304 301 305 308
185 161 154 150 157 144 140 273 313 305 302 302 301 300 305 306 308 315 320 321 319 319 324 329 321 317 313 308 316 298 289 282 288 290 291 283 271 277 280 291 304 299 309 311
137 128 129 132 103 127 332 316 306 301 301 297 293 299 304 310 317 322 327 331 332 329 335 328 314 313 312 302 317 293 282 286 292 293 287 292 279 272 278 279 294 297 303 300
122 121 102 108 21 335 321 313 310 313 311 300 302 303 306 312 321 327 331 329 329 324 320 324 315 310 311 307 310 278 271 275 278 291 295 294 288 273 274 277 282 293 299 300
111 126 120 329 334 334 327 322 320 319 314 306 303 301 297 311 321 325 330 327 335 322 321 324 324 324 319 318 313 275 268 270 274 282 286 289 303 274 272 274 276 283 281 294
60 348 329 332 332 328 326 322 318 313 312 311 310 297 297 305 311 314 321 326 325 324 321 319 322 322 318 318 304 279 272 274 278 279 279 286 286 296 273 269 272 274 282 291
311 315 321 326 326 325 327 330 325 316 310 304 301 299 296 302 300 306 316 324 320 316 313 313 315 318 314 309 301 282 277 276 277 277 279 278 282 280 284 273 268 272 278 281
314 314 318 320 320 326 330 333 329 321 316 317 316 312 303 296 289 297 307 315 313 315 317 316 313 313 314 303 303 297 285 278 278 279 281 278 273 272 268 270 273 271 271 273
325 323 324 325 327 331 330 324 316 312 309 307 307 303 305 293 291 304 313 314 313 315 313 313 312 314 313 311 302 298 298 292 287 284 281 278 273 271 270 277 274 270 269 266
327 330 326 323 318 322 324 318 316 315 314 315 315 318 307 298 303 308 311 307 308 309 310 314 317 317 313 310 305 299 300 300 297 293 291 286 281 274 267 272 285 280 272 267
317 316 317 314 314 311 313 310 311 312 311 311 306 305 304 299 296 303 301 298 307 310 317 319 315 318 317 314 314 309 310 297 296 301 299 293 289 283 264 266 278 283 280 266
Height
1541 1543 1540 1542 1542 1543 1546 1549 1558 1550 1550 1544 1546 1546 1548 1550 1551 1551 1551 1551 1550 1549 1549 1548 1546 1544 1541 1539 1536 1533 1530 1527 1523 1520 1516 1513 1509 1504 1499 1496 1493 1492 1491 1488
1544 1546 1548 1544 1542 1541 1542 1539 1540 1540 1549 1547 1547 1547 1548 1549 1549 1549 1549 1548 1548 1548 1547 1544 1542 1540 1538 1535 1533 1529 1526 1522 1519 1514 1510 1506 1501 1497 1494 1490 1488 1489 1486 1484
1560 1556 1553 1561 1539 1536 1534 1537 1536 1542 1542 1546 1548 1547 1548 1548 1548 1547 1547 1547 1546 1545 1542 1540 1539 1537 1534 1532 1529 1524 1521 1517 1513 1509 1504 1499 1495 1491 1488 1486 1484 1483 1482 1480
1570 1568 1574 1536 1531 1530 1534 1537 1537 1539 1542 1544 1544 1545 1546 1546 1546 1545 1545 1544 1543 1541 1540 1538 1536 1534 1531 1528 1523 1519 1515 1512 1508 1504 1499 1494 1490 1486 1482 1481 1481 1481 1478 1476
1575 1570 1552 1532 1531 1532 1533 1538 1536 1538 1541 1542 1544 1545 1545 1544 1543 1543 1542 1541 1540 1538 1537 1535 1533 1530 1526 1523 1519 1515 1511 1507 1503 1498 1494 1489 1485 1482 1480 1480 1478 1478 1476 1472
1571 1575 1572 1535 1527 1526 1528 1546 1531 1533 1537 1538 1541 1548 1540 1539 1540 1541 1540 1539 1538 1536 1534 1532 1528 1524 1521 1518 1515 1511 1506 1502 1498 1493 1489 1486 1482 1480 1479 1477 1476 1475 1471 1468
1582 1580 1552 1528 1524 1527 1545 1538 1525 1528 1531 1534 1536 1536 1537 1537 1537 1538 1536 1536 1534 1533 1530 1527 1524 1519 1516 1513 1510 1507 1502 1498 1492 1489 1485 1482 1480 1478 1476 1475 1473 1471 1468 1464
1565 1578 1554 1518 1524 1531 1521 1519 1521 1524 1526 1528 1529 1530 1531 1533 1535 1534 1533 1532 1530 1528 1525 1523 1519 1516 1512 1509 1506 1502 1497 1493 1489 1485 1482 1480 1477 1475 1474 1472 1470 1467 1464 1461
1535 1530 1513 1513 1510 1512 1512 1514 1516 1519 1522 1524 1526 1528 1529 1530 1530 1529 1528 1527 1526 1523 1520 1518 1515 1512 1508 1504 1500 1496 1492 1489 1484 1481 1479 1477 1475 1473 1471 1469 1467 1464 1461 1457
1522 1510 1509 1509 1509 1509 1510 1511 1513 1516 1519 1521 1524 1527 1527 1526 1526 1526 1525 1523 1521 1519 1516 1513 1511 1507 1503 1498 1494 1491 1488 1484 1480 1477 1476 1473 1471 1470 1468 1466 1463 1460 1457 1454
1514 1507 1506 1506 1506 1506 1508 1510 1513 1515 1516 1519 1520 1522 1522 1523 1523 1522 1521 1519 1517 1514 1511 1509 1505 1501 1497 1492 1489 1486 1483 1480 1477 1474 1472 1470 1468 1467 1465 1462 1460 1457 1454 1451
1507 1501 1501 1501 1501 1503 1505 1508 1510 1512 1515 1517 1518 1519 1520 1520 1519 1518 1517 1514 1512 1509 1506 1502 1498 1494 1489 1486 1483 1480 1478 1476 1473 1471 1469 1467 1465 1464 1462 1459 1457 1454 1451 1449
1495 1496 1495 1496 1499 1502 1504 1506 1508 1509 1512 1514 1516 1517 1518 1517 1516 1514 1512 1509 1507 1503 1500 1496 1492 1488 1484 1480 1477 1474 1472 1470 1468 1467 1466 1464 1462 1459 1456 1456 1454 1452 1449 1446
1490 1491 1493 1494 1497 1500 1502 1504 1507 1508 1510 1512 1514 1515 1514 1513 1512 1510 1507 1504 1501 1498 1494 1490 1485 1481 1478 1475 1471 1468 1466 1465 1463 1462 1461 1460 1458 1456 1454 1452 1450 1448 1446 1444
1486 1487 1489 1492 1495 1498 1502 1504 1503 1505 1509 1510 1511 1511 1510 1509 1507 1505 1503 1500 1496 1492 1488 1484 1479 1476 1473 1469 1466 1463 1461 1460 1459 1458 1457 1456 1454 1452 1451 1449 1447 1445 1443 1441
1483 1485 1487 1490 1493 1498 1501 1505 1504 1504 1507 1507 1507 1506 1505 1504 1502 1500 1498 1494 1489 1484 1481 1477 1473 1471 1468 1464 1461 1459 1457 1455 1454 1453 1453 1451 1450 1448 1447 1445 1444 1442 1440 1439
1481 1484 1488 1489 1492 1497 1501 1502 1503 1502 1504 1504 1503 1502 1501 1499 1497 1495 1492 1488 1483 1478 1474 1471 1468 1466 1463 1461 1457 1454 1452 1450 1450 1449 1448 1447 1446 1445 1443 1442 1440 1439 1437 1436
1479 1482 1483 1491 1496 1498 1499 1500 1500 1500 1500 1500 1499 1498 1497 1494 1492 1489 1486 1481 1476 1472 1469 1467 1464 1461 1459 1455 1452 1449 1447 1446 1445 1443 1442 1441 1441 1440 1439 1438 1437 1435 1434 1432
1480 1483 1488 1494 1495 1496 1497 1498 1497 1497 1496 1495 1494 1493 1492 1490 1487 1484 1480 1475 1471 1466 1464 1462 1459 1456 1452 1450 1447 1443 1442 1441 1440 1439 1438 1437 1436 1436 1435 1434 1433 1431 1429 1428
1490 1491 1493 1495 1495 1495 1495 1495 1494 1493 1492 1491 1490 1488 1487 1485 1482 1478 1475 1470 1468 1464 1460 1456 1453 1449 1445 1442 1439 1436 1436 1436 1435 1434 1433 1432 1431 1430 1430 1429 1428 1426 1425 1424
1491 1493 1494 1495 1494 1493 1492 1492 1491 1490 1488 1487 1485 1483 1481 1479 1477 1474 1470 1465 1462 1458 1454 1451 1447 1443 1439 1436 1432 1430 1430 1430 1430 1429 1428 1427 1426 1425 1424 1423 1422 1421 1420 1418
1493 1493 1493 1492 1492 1491 1490 1489 1487 1486 1484 1482 1480 1478 1476 1474 1471 1468 1466 1461 1456 1453 1449 1445 1442 1438 1434 1430 1427 1426 1425 1425 1424 1423 1422 1422 1420 1419 1418 1417 1416 1415 1414 1413
1492 1492 1491 1490 1489 1488 1487 1486 1484 1483 1481 1479 1476 1474 1471 1468 1465 1461 1456 1455 1450 1446 1443 1439 1436 1432 1429 1425 1422 1421 1420 1419 1418 1416 1415 1415 1413 1412 1411 1410 1410 1409 1408 1408
1491 1490 1489 1489 1487 1486 1484 1483 1481 1479 1476 1473 1470 1467 1464 1461 1459 1456 1453 1448 1444 1440 1437 1433 1430 1427 1423 1419 1417 1414 1413 1411 1410 1409 1407 1406 1405 1404 1403 1403 1402 1402 1401 1401
1489 1488 1487 1486 1485 1483 1481 1478 1474 1472 1469 1466 1463 1460 1457 1454 1451 1448 1445 1441 1438 1435 1431 1428 1425 1421 1417 1414 1411 1408 1406 1404 1402 1400 1398 1397 1396 1395 1395 1394 1394 1393 1393 1393
1487 1487 1485 1484 1482 1479 1476 1472 1468 1465 1462 1459 1456 1453 1449 1448 1445 1442 1439 1436 1433 1429 1425 1421 1418 1415 1411 1408 1405 1401 1399 1396 1394 1391 1389 1387 1386 1386 1386 1386 1386 1385 1385 1385
1486 1484 1482 1479 1477 1474 1470 1466 1463 1459 1456 1453 1448 1445 1442 1440 1438 1436 1433 1430 1427 1423 1419 1416 1412 1409 1406 1402 1399 1395 1391 1388 1386 1383 1381 1378 1377 1377 1377 1379 1379 1378 1377 1377